Marietta, GA

6:59 AM EST on February 13, 2016 (GMT -0500)
Dobbins Air Force Base

Weather History for KMGE - January, 2012

Change the Weather History Date:

Wednesday, January 18, 2012

  Actual Average Record
Temperature  
Mean Temperature 42 °F -  
Max Temperature 53 °F 49 °F 60 °F (1999)
Min Temperature 32 °F 31 °F 12 °F (2003)
Degree Days  
Heating Degree Days 22    
Moisture  
Dew Point 34 °F    
Average Humidity 72    
Maximum Humidity 94    
Minimum Humidity 44    
Precipitation  
Precipitation 0.04 in - - ()
Sea Level Pressure  
Sea Level Pressure 30.08 in    
Wind  
Wind Speed 12 mph (NW)    
Max Wind Speed 21 mph    
Max Gust Speed 28 mph    
Visibility 10 miles    
Events Rain    
Averages and records for this station are not official NWS values.
T = Trace of Precipitation, MM = Missing Value Source: NWS Daily Summary

Daily Weather History Graph

Daily Weather History Graph

Search for Another Location

Airport or City:

Trip Planner

Search our weather history database for the weather conditions in past years. The results will help you decide how hot, cold, wet, or windy it might be!

Date:

Astronomy

Jan. 18, 2012 Rise Set
Actual Time 7:42 AM EST 5:54 PM EST
Civil Twilight 7:15 AM EST 6:21 PM EST
Nautical Twilight 6:44 AM EST 6:52 PM EST
Astronomical Twilight 6:14 AM EST 7:22 PM EST
Moon 3:10 AM EST (1/18) 1:34 PM EST (1/18)
Length of Visible Light 11h 06m
Length of Day
10h 12m
Waning Crescent, 25% of the Moon is Illuminated
Jan 18
Waning Crescent
Jan 23
New
Jan 30
First Quarter
Feb 7
Full
Feb 14
Last Quarter

Hourly Weather History & Observations

Time (EST) Temp. Windchill Dew Point Humidity Pressure Visibility Wind Dir Wind Speed Gust Speed Precip Events Conditions
12:00 AM 53.6 °F - 51.8 °F 94% 30.00 in 7.0 mi West 10.4 mph - N/A Rain Light Rain
12:11 AM 53.6 °F - 51.8 °F 94% 30.00 in 7.0 mi West 9.2 mph - N/A Rain Light Rain
12:16 AM 53.6 °F - 51.8 °F 94% 30.00 in 10.0 mi West 9.2 mph - N/A Rain Light Rain
12:23 AM 53.6 °F - 51.8 °F 94% 30.00 in 10.0 mi WNW 8.1 mph - N/A   Light Drizzle
12:46 AM 51.8 °F - 50.0 °F 94% 30.01 in 10.0 mi NW 20.7 mph 26.5 mph N/A   Light Drizzle
12:49 AM 51.8 °F - 48.2 °F 88% 30.02 in 10.0 mi NW 17.3 mph 26.5 mph N/A   Overcast
12:54 AM 51.8 °F - 46.4 °F 82% 30.02 in 10.0 mi NW 15.0 mph 26.5 mph N/A   Overcast
12:55 AM 50.9 °F - 46.6 °F 85% 30.02 in 10.0 mi NW 15.0 mph 24.2 mph 0.03 in   Overcast
1:11 AM 50.0 °F - 46.4 °F 87% 30.02 in 10.0 mi NW 18.4 mph 27.6 mph N/A   Overcast
1:12 AM 50.0 °F - 46.4 °F 87% 30.02 in 10.0 mi NW 15.0 mph 27.6 mph N/A   Overcast
1:19 AM 50.0 °F - 46.4 °F 87% 30.02 in 10.0 mi WNW 10.4 mph - N/A   Mostly Cloudy
1:55 AM 46.6 °F - 39.7 °F 77% 30.04 in 10.0 mi NW 13.8 mph 20.7 mph 0.01 in   Overcast
2:55 AM 43.3 °F 37.2 °F 36.9 °F 78% 30.04 in 10.0 mi NW 11.5 mph 18.4 mph N/A   Clear
3:55 AM 39.9 °F 31.1 °F 34.2 °F 80% 30.06 in 10.0 mi NW 17.3 mph 23.0 mph N/A   Clear
4:55 AM 37.0 °F 28.9 °F 30.9 °F 79% 30.07 in 10.0 mi NW 12.7 mph 20.7 mph N/A   Clear
5:55 AM 35.1 °F 27.9 °F 28.9 °F 78% 30.09 in 10.0 mi NW 9.2 mph - N/A   Clear
6:55 AM 33.8 °F 27.0 °F 27.7 °F 78% 30.11 in 10.0 mi WNW 8.1 mph - N/A   Clear
7:55 AM 32.7 °F 24.5 °F 26.2 °F 77% 30.12 in 10.0 mi NW 10.4 mph - N/A   Clear
8:55 AM 33.1 °F 23.4 °F 25.9 °F 75% 30.14 in 10.0 mi WNW 13.8 mph 20.7 mph N/A   Clear
9:55 AM 35.6 °F 25.9 °F 26.8 °F 70% 30.15 in 10.0 mi NW 16.1 mph 19.6 mph N/A   Clear
10:55 AM 38.7 °F 31.4 °F 27.5 °F 64% 30.16 in 10.0 mi NW 11.5 mph - N/A   Clear
11:55 AM 41.0 °F 33.9 °F 27.5 °F 59% 30.15 in 10.0 mi NNW 12.7 mph - N/A   Clear
12:55 PM 42.6 °F 35.9 °F 26.2 °F 52% 30.12 in 10.0 mi WNW 12.7 mph - N/A   Clear
1:55 PM 44.6 °F 39.2 °F 26.6 °F 49% 30.09 in 10.0 mi WNW 10.4 mph - N/A   Clear
2:55 PM 44.6 °F 38.4 °F 24.1 °F 44% 30.11 in 10.0 mi WNW 12.7 mph 23.0 mph N/A   Clear
3:55 PM 45.1 °F 38.1 °F 24.3 °F 44% 30.12 in 10.0 mi WNW 16.1 mph - N/A   Clear
4:55 PM 44.1 °F 39.5 °F 24.3 °F 46% 30.11 in 10.0 mi NW 8.1 mph - N/A   Clear
5:55 PM 40.6 °F 34.8 °F 24.4 °F 53% 30.13 in 10.0 mi WNW 9.2 mph - N/A   Clear
6:55 PM 39.2 °F 35.0 °F 23.9 °F 54% 30.13 in 10.0 mi NW 5.8 mph - N/A   Clear
7:55 PM 37.0 °F 29.8 °F 23.9 °F 59% 30.15 in 10.0 mi NNW 10.4 mph - N/A   Clear
8:55 PM 34.9 °F 30.8 °F 23.0 °F 62% 30.13 in 10.0 mi NNW 4.6 mph - N/A   Clear
9:55 PM 33.4 °F 29.1 °F 22.1 °F 63% 30.14 in 10.0 mi WNW 4.6 mph - N/A   Clear
10:55 PM 33.6 °F 27.5 °F 22.1 °F 63% 30.14 in 10.0 mi NW 6.9 mph - N/A   Clear
11:55 PM 32.9 °F - 21.4 °F 63% 30.12 in 10.0 mi Calm Calm - N/A   Clear